K5HAS Weather Reports


Display with metric or nautical units.
time (UTC)temp
F
wind
direction
speed
MPH
gust
MPH
rain 1hr
in
rain 24hr
in
rain mn
in
humidity
%
barometer
mb
20260509042130 74 101 4.0 6.0 0.00 0.00 0.00 89 1008.5
20260509041630 74 95 4.0 6.0 0.00 0.00 0.00 89 1008.5
20260509041350 74 103 4.0 6.0 0.00 0.00 0.00 89 1008.5
20260509040849 74 95 4.0 7.0 0.00 0.00 0.00 89 1008.5
20260509040129 74 110 4.0 7.0 0.00 0.00 0.00 89 1008.5
20260509035627 74 95 4.0 6.0 0.00 0.00 0.00 89 1008.3
20260509035117 74 90 4.0 6.0 0.00 0.00 0.00 89 1008.3
20260509034832 74 85 3.0 6.0 0.00 0.00 0.00 89 1008.3
20260509034058 74 99 4.0 7.0 0.00 0.00 0.00 89 1008.2
20260509033552 74 95 4.0 7.0 0.00 0.00 0.00 89 1008.2
20260509033259 74 103 4.0 6.0 0.00 0.00 0.00 89 1008.2
20260509032535 74 107 3.0 6.0 0.00 0.00 0.00 88 1007.9
20260509032021 74 90 3.0 7.0 0.00 0.00 0.00 88 1007.9
20260509031736 74 69 3.0 8.0 0.00 0.00 0.00 88 1007.9
20260509031013 74 52 3.0 8.0 0.00 0.00 0.00 88 1007.7
20260509030503 74 50 3.0 6.0 0.00 0.00 0.00 88 1007.7
20260509025953 74 61 2.0 5.0 0.00 0.00 0.00 88 1007.4
20260509025448 74 54 2.0 5.0 0.00 0.00 0.00 88 1007.4
20260509024936 74 68 2.0 6.0 0.00 0.00 0.00 88 1007.4
20260509024427 74 85 3.0 6.0 0.00 0.00 0.00 88 1007.2
20260509023926 74 56 3.0 6.0 0.00 0.00 0.00 88 1007.2
20260509023427 74 35 3.0 5.0 0.00 0.00 0.00 88 1007.2
20260509022925 74 80 2.0 5.0 0.00 0.00 0.00 88 1007.3
20260509022422 74 85 2.0 5.0 0.00 0.00 0.00 88 1007.3
20260509021922 74 74 2.0 5.0 0.00 0.00 0.00 88 1007.3
20260509021428 74 58 2.0 5.0 0.00 0.00 0.00 88 1007.2
20260509020927 74 47 2.0 4.0 0.00 0.00 0.00 88 1007.2
20260509020642 74 58 2.0 5.0 0.00 0.00 0.00 88 1007.2
20260509015921 74 57 2.0 5.0 0.00 0.00 0.00 88 1007.2
20260509014910 74 61 2.0 5.0 0.00 0.00 0.00 88 1007.2
20260509013914 74 59 2.0 6.0 0.00 0.00 0.00 88 1006.7
20260509013411 74 60 3.0 7.0 0.00 0.00 0.00 88 1006.7
20260509012910 74 43 3.0 7.0 0.00 0.00 0.00 88 1006.6
20260509012414 74 56 3.0 6.0 0.00 0.00 0.00 88 1006.6
20260509011910 74 59 3.0 6.0 0.00 0.00 0.00 88 1006.6
20260509011632 74 62 3.0 8.0 0.00 0.00 0.00 88 1006.6
20260509010901 74 57 3.0 8.0 0.00 0.00 0.00 88 1006.6
20260509010356 74 55 3.0 8.0 0.00 0.00 0.00 88 1006.6
20260509005845 74 51 3.0 8.0 0.00 0.00 0.00 88 1006.4
20260509005335 74 47 4.0 8.0 0.00 0.00 0.00 88 1006.4
20260509004829 74 47 4.0 8.0 0.00 0.00 0.00 88 1006.4
20260509004333 74 64 3.0 6.0 0.00 0.00 0.00 88 1006.6
20260509003828 74 71 4.0 10.0 0.00 0.00 0.00 88 1006.6
20260509003327 74 85 5.0 10.0 0.00 0.00 0.00 88 1006.6
20260509002828 74 111 5.0 9.0 0.00 0.00 0.00 88 1006.3
20260509002329 74 61 5.0 9.0 0.00 0.00 0.00 88 1006.3
20260509001833 74 70 5.0 9.0 0.00 0.00 0.00 88 1006.3
20260509001328 74 76 5.0 9.0 0.00 0.00 0.00 88 1006.6
20260509000829 74 59 6.0 9.0 0.00 0.00 0.00 88 1006.6
20260509000548 74 57 5.0 11.0 0.00 0.00 0.00 88 1006.6
20260508235831 74 78 4.0 11.0 0.00 0.00 0.00 88 1006.5
20260508235328 74 64 5.0 11.0 0.00 0.00 0.00 88 1006.5
20260508234823 74 85 5.0 12.0 0.00 0.00 0.00 88 1006.5
20260508234321 74 80 5.0 12.0 0.00 0.00 0.00 88 1006.3
20260508233807 74 53 6.0 12.0 0.00 0.00 0.00 88 1006.3
20260508233257 74 90 6.0 12.0 0.00 0.00 0.00 88 1006.3
20260508232751 74 63 5.0 11.0 0.00 0.00 0.00 88 1006.7
20260508232249 74 55 6.0 11.0 0.00 0.00 0.00 88 1006.7
20260508231740 74 32 5.0 9.0 0.00 0.00 0.00 88 1006.7
20260508231221 74 31 5.0 10.0 0.00 0.00 0.00 88 1006.6
20260508230204 74 59 4.0 11.0 0.00 0.00 0.00 88 1006.6
20260508225928 74 85 5.0 11.0 0.00 0.00 0.00 88 1006.6
20260508224701 74 63 6.0 11.0 0.00 0.00 0.00 88 1006.6
20260508224202 74 62 5.0 11.0 0.00 0.00 0.00 88 1006.8
20260508223659 74 53 5.0 11.0 0.00 0.00 0.00 88 1006.8
20260508223202 74 66 5.0 10.0 0.00 0.00 0.00 88 1006.8
20260508222701 74 85 5.0 10.0 0.00 0.00 0.00 88 1007.1
20260508222157 74 54 5.0 10.0 0.00 0.00 0.00 88 1007.1
20260508221658 74 63 5.0 10.0 0.00 0.00 0.00 88 1007.1
20260508221158 74 90 5.0 10.0 0.00 0.00 0.00 88 1007.2
20260508220659 74 60 5.0 11.0 0.00 0.00 0.00 88 1007.2
20260508220158 74 90 4.0 11.0 0.00 0.00 0.00 88 1007.2
20260508215913 74 67 5.0 11.0 0.00 0.00 0.00 88 1007.1
20260508215154 74 75 5.0 11.0 0.00 0.00 0.00 89 1007.1
20260508214653 74 67 6.0 10.0 0.00 0.00 0.00 89 1007.1
20260508214153 74 95 6.0 11.0 0.00 0.00 0.00 89 1007.2
20260508213653 73 72 5.0 11.0 0.00 0.00 0.00 89 1007.2
20260508213153 73 76 5.0 8.0 0.00 0.00 0.00 89 1007.2
20260508212654 73 90 4.0 8.0 0.00 0.00 0.00 89 1007.6
20260508212151 73 63 4.0 8.0 0.00 0.00 0.00 89 1007.6
20260508211652 73 61 5.0 10.0 0.00 0.00 0.00 89 1007.6
20260508211406 73 60 6.0 10.0 0.00 0.00 0.00 89 1007.7
20260508210651 73 76 6.0 10.0 0.00 0.00 0.00 89 1007.7
20260508210153 73 47 5.0 10.0 0.00 0.00 0.00 89 1007.7
20260508205647 73 57 5.0 10.0 0.00 0.00 0.00 89 1007.8
20260508205148 73 36 6.0 10.0 0.00 0.00 0.00 89 1007.8
20260508204647 73 63 6.0 11.0 0.00 0.00 0.00 89 1007.8
20260508204408 73 59 5.0 11.0 0.00 0.00 0.00 89 1008.1
20260508203648 73 59 5.0 10.0 0.00 0.00 0.00 89 1008.1
20260508203147 73 51 6.0 11.0 0.00 0.00 0.00 89 1008.1
20260508202638 72 57 6.0 13.0 0.00 0.00 0.00 89 1008.4
20260508202132 72 48 7.0 13.0 0.00 0.00 0.00 89 1008.4
20260508201108 72 30 8.0 13.0 0.00 0.00 0.00 89 1008.3
20260508200559 72 31 7.0 12.0 0.00 0.00 0.00 89 1008.3
20260508200059 72 28 7.0 12.0 0.00 0.00 0.00 89 1008.3
20260508195826 72 30 7.0 12.0 0.00 0.00 0.00 89 1008.7
20260508195322 72 36 7.0 11.0 0.00 0.00 0.00 89 1008.7
20260508194820 72 18 8.0 11.0 0.00 0.00 0.00 89 1008.7
20260508194057 72 27 7.0 10.0 0.00 0.00 0.00 89 1008.7
20260508193557 72 54 7.0 12.0 0.00 0.00 0.00 89 1008.7
20260508193057 72 49 7.0 12.0 0.00 0.00 0.00 89 1008.7
20260508192558 71 39 7.0 12.0 0.00 0.00 0.00 89 1008.9
20260508192057 71 33 7.0 11.0 0.00 0.00 0.00 89 1008.9
20260508191558 71 30 7.0 11.0 0.00 0.00 0.00 89 1008.9
20260508191058 71 45 7.0 11.0 0.00 0.00 0.00 89 1009.1
20260508190552 71 20 7.0 11.0 0.00 0.00 0.00 89 1009.1
20260508190046 71 32 7.0 11.0 0.00 0.00 0.00 89 1009.1
20260508185536 71 47 6.0 11.0 0.00 0.00 0.00 88 1009.2
20260508185028 71 16 6.0 10.0 0.00 0.00 0.00 88 1009.2
20260508184528 70 19 6.0 11.0 0.00 0.00 0.00 89 1009.2
20260508184251 70 19 7.0 11.0 0.00 0.00 0.00 88 1009.2
20260508183529 70 90 7.0 11.0 0.00 0.00 0.00 88 1009.2
20260508183028 70 90 7.0 10.0 0.00 0.00 0.00 88 1009.2
20260508182530 71 15 7.0 10.0 0.00 0.00 0.00 88 1009.3
20260508182028 71 90 6.0 11.0 0.00 0.00 0.00 88 1009.3
20260508181528 71 16 6.0 11.0 0.00 0.00 0.00 88 1009.3
20260508181249 71 27 7.0 13.0 0.00 0.00 0.00 88 1009.4
20260508180528 71 39 8.0 13.0 0.00 0.00 0.00 88 1009.4
20260508180255 71 19 8.0 13.0 0.00 0.00 0.00 88 1009.4
20260508175529 71 28 8.0 13.0 0.00 0.00 0.00 88 1009.7
20260508175023 71 4 7.0 13.0 0.00 0.00 0.00 88 1009.7
20260508174521 70 15 6.0 13.0 0.00 0.00 0.00 88 1009.7
20260508174015 70 11 6.0 13.0 0.00 0.00 0.00 88 1009.9
20260508173516 70 9 6.0 10.0 0.00 0.00 0.00 88 1009.9
20260508173010 71 343 7.0 14.0 0.00 0.00 0.00 88 1009.9
20260508172520 71 334 7.0 14.0 0.00 0.00 0.00 88 1009.8
20260508172007 71 15 8.0 14.0 0.00 0.00 0.00 88 1009.8
20260508171510 71 357 9.0 14.0 0.00 0.00 0.00 88 1009.8
20260508171008 71 353 8.0 13.0 0.00 0.00 0.00 88 1009.8
20260508170524 72 359 8.0 5.0 0.00 0.00 0.00 88 1009.8
20260508165710 73 2 9.0 13.0 0.00 0.00 0.00 88 1009.9
20260508165435 73 23 9.0 13.0 0.00 0.00 0.00 88 1009.9
20260508164709 73 8 8.0 12.0 0.00 0.00 0.00 88 1009.9
20260508164208 72 14 6.0 10.0 0.00 0.00 0.00 88 1010.3
20260508163708 73 3 5.0 9.0 0.00 0.00 0.00 88 1010.3
20260508163208 72 6 4.0 8.0 0.00 0.00 0.00 88 1010.3
20260508162704 72 14 5.0 8.0 0.00 0.00 0.00 88 1010.0
20260508162424 72 20 5.0 8.0 0.00 0.00 0.00 88 1010.0
20260508161644 72 36 5.0 8.0 0.00 0.00 0.00 88 1010.0
20260508161134 72 355 4.0 8.0 0.00 0.00 0.00 88 1009.9
20260508160625 72 355 4.0 8.0 0.00 0.00 0.00 88 1009.9
20260508160119 72 28 5.0 8.0 0.00 0.00 0.00 88 1009.9
20260508155614 71 49 4.0 6.0 0.00 0.00 0.00 88 1010.3
20260508155333 71 39 4.0 6.0 0.00 0.00 0.00 88 1010.3
20260508154614 71 24 4.0 6.0 0.00 0.00 0.00 88 1010.3
20260508154115 71 19 4.0 6.0 0.00 0.00 0.00 88 1010.4
20260508153615 71 25 3.0 6.0 0.00 0.00 0.00 88 1010.4
20260508153112 71 67 3.0 6.0 0.00 0.00 0.00 88 1010.4
20260508152610 70 85 3.0 6.0 0.00 0.00 0.00 88 1010.6
20260508152107 70 57 3.0 6.0 0.00 0.00 0.00 88 1010.6
20260508151608 70 43 4.0 6.0 0.00 0.00 0.00 88 1010.6
20260508151107 70 29 3.0 6.0 0.00 0.00 0.00 88 1010.6
20260508150834 69 85 3.0 7.0 0.00 0.00 0.00 88 1010.6
20260508150325 69 78 4.0 7.0 0.00 0.00 0.00 88 1010.6
20260508145603 69 50 4.0 7.0 0.00 0.00 0.00 87 1010.4
20260508145100 69 49 5.0 7.0 0.00 0.00 0.00 87 1010.4
20260508144045 69 41 3.0 7.0 0.00 0.00 0.00 87 1011.0
20260508143535 69 49 2.0 5.0 0.00 0.00 0.00 87 1011.0
20260508143020 69 45 2.0 10.0 0.00 0.00 0.00 87 1011.0
20260508142735 68 58 3.0 10.0 0.00 0.00 0.00 87 1010.3
20260508142008 68 37 5.0 10.0 0.00 0.00 0.00 87 1010.3
20260508141454 68 27 6.0 10.0 0.00 0.00 0.00 87 1010.3
20260508141210 68 53 5.0 9.0 0.00 0.00 0.00 87 1010.3
20260508140430 68 45 5.0 9.0 0.00 0.00 0.00 87 1010.3
20260508140148 68 51 4.0 7.0 0.00 0.00 0.00 87 1010.8
20260508135418 68 53 3.0 7.0 0.00 0.00 0.00 87 1010.8
20260508134904 67 26 4.0 7.0 0.00 0.00 0.00 86 1010.8
20260508134355 67 39 3.0 7.0 0.00 0.00 0.00 86 1011.2
20260508133849 67 48 3.0 7.0 0.00 0.00 0.00 86 1011.2
20260508133340 67 50 3.0 7.0 0.00 0.00 0.00 86 1011.2
20260508132837 67 74 3.0 7.0 0.00 0.00 0.00 86 1011.3
20260508132603 67 90 3.0 7.0 0.00 0.00 0.00 86 1011.3
20260508131836 67 70 2.0 7.0 0.00 0.00 0.00 86 1011.3
20260508131338 67 62 2.0 6.0 0.00 0.00 0.00 86 1011.4
20260508130835 66 47 2.0 6.0 0.00 0.00 0.00 86 1011.4
20260508130335 66 59 3.0 7.0 0.00 0.00 0.00 86 1011.4
20260508130054 66 54 4.0 7.0 0.00 0.00 0.00 86 1011.2
20260508125335 66 47 5.0 12.0 0.00 0.00 0.00 86 1011.2
20260508124833 66 55 7.0 12.0 0.00 0.00 0.00 86 1011.2
20260508124332 66 52 7.0 12.0 0.00 0.00 0.00 86 1011.4
20260508123828 66 9 7.0 13.0 0.00 0.00 0.00 86 1011.4
20260508123329 66 355 7.0 16.0 0.00 0.00 0.00 86 1011.4
20260508122830 66 18 7.0 16.0 0.00 0.00 0.00 86 1011.3
20260508122329 66 345 9.0 16.0 0.00 0.00 0.00 85 1011.3
20260508121830 66 348 10.0 16.0 0.00 0.00 0.00 85 1011.3
20260508120829 67 358 9.0 16.0 0.00 0.00 0.00 85 1011.2
20260508120329 67 16 10.0 16.0 0.00 0.00 0.00 85 1011.2
20260508115828 67 346 11.0 16.0 0.00 0.00 0.00 85 1011.4
20260508115318 67 338 12.0 19.0 0.00 0.00 0.00 85 1011.4
20260508114812 68 340 12.0 19.0 0.00 0.00 0.00 85 1011.4
20260508114302 68 336 11.0 19.0 0.00 0.00 0.00 85 1011.4
20260508113748 68 344 12.0 18.0 0.00 0.00 0.00 85 1011.4
20260508113241 68 347 12.0 18.0 0.00 0.00 0.00 85 1011.4
20260508112736 68 315 10.0 17.0 0.00 0.00 0.00 85 1011.1
20260508112222 69 319 10.0 14.0 0.00 0.00 0.00 85 1011.1
20260508111716 68 320 10.0 14.0 0.00 0.00 0.00 85 1011.1
20260508111206 68 338 7.0 12.0 0.00 0.00 0.00 85 1010.6
20260508110926 68 344 5.0 9.0 0.00 0.00 0.00 85 1010.6
20260508110156 68 358 4.0 7.0 0.00 0.00 0.00 84 1010.6
20260508105658 68 342 3.0 7.0 0.00 0.00 0.00 84 1010.2
20260508105155 68 43 4.0 7.0 0.00 0.00 0.00 84 1010.2
20260508104652 68 31 5.0 7.0 0.00 0.00 0.00 84 1010.2
20260508104154 68 50 4.0 9.0 0.00 0.00 0.00 84 1010.2
20260508103653 68 22 4.0 9.0 0.00 0.00 0.00 84 1010.2
20260508103154 68 49 4.0 9.0 0.00 0.00 0.00 84 1010.2
20260508102412 68 46 4.0 8.0 0.00 0.00 0.00 84 1010.6
20260508101650 69 37 4.0 8.0 0.00 0.00 0.00 84 1010.6
20260508101420 69 40 5.0 11.0 0.00 0.00 0.00 84 1010.9
20260508100646 69 25 5.0 11.0 0.00 0.00 0.00 84 1010.9
20260508100355 69 353 7.0 11.0 0.00 0.00 0.00 84 1010.9
20260508095630 69 349 8.0 11.0 0.00 0.00 0.00 84 1011.5
20260508095124 69 333 7.0 13.0 0.00 0.00 0.00 84 1011.5
20260508094617 69 334 7.0 13.0 0.00 0.00 0.00 84 1011.5
20260508094105 69 315 7.0 11.0 0.00 0.00 0.00 84 1011.1
20260508093559 69 326 7.0 10.0 0.00 0.00 0.00 84 1011.1
20260508093045 69 338 6.0 10.0 0.00 0.00 0.00 84 1011.1
20260508092539 69 341 4.0 7.0 0.00 0.00 0.00 84 1010.8
20260508092038 69 342 3.0 6.0 0.00 0.00 0.00 84 1010.8
20260508091039 69 28 0.0 3.0 0.00 0.00 0.00 85 1010.5
20260508090801 69 28 0.0 0.0 0.00 0.00 0.00 85 1010.5
20260508090034 69 28 0.0 0.0 0.00 0.00 0.00 84 1010.5
20260508085532 69 28 0.0 0.0 0.00 0.00 0.00 84 1010.8
20260508085033 69 28 0.0 2.0 0.00 0.00 0.00 84 1010.8
20260508084750 69 28 0.0 2.0 0.00 0.00 0.00 85 1010.8
20260508084034 69 28 0.0 2.0 0.00 0.00 0.00 84 1010.8
20260508083532 69 28 0.0 2.0 0.00 0.00 0.00 84 1010.8
20260508083033 69 16 0.0 3.0 0.00 0.00 0.00 84 1010.8
20260508082532 69 16 1.0 3.0 0.00 0.00 0.00 84 1010.7
20260508082032 69 16 2.0 3.0 0.00 0.00 0.00 85 1010.7
20260508081533 69 16 2.0 5.0 0.00 0.00 0.00 84 1010.7
20260508080531 69 7 3.0 6.0 0.00 0.00 0.00 84 1010.8
20260508080031 69 10 4.0 7.0 0.00 0.00 0.00 84 1010.8
20260508075529 69 12 5.0 8.0 0.00 0.00 0.00 84 1010.9
20260508075028 69 20 5.0 8.0 0.00 0.00 0.00 84 1010.9
20260508074528 69 22 5.0 9.0 0.00 0.00 0.00 84 1010.9
20260508074028 69 328 5.0 9.0 0.00 0.00 0.00 84 1011.3
20260508073527 69 357 5.0 8.0 0.00 0.00 0.00 84 1011.3
20260508073025 69 342 5.0 8.0 0.00 0.00 0.00 84 1011.3
20260508072527 69 354 4.0 8.0 0.00 0.00 0.00 84 1011.6
20260508072250 69 359 5.0 8.0 0.00 0.00 0.00 84 1011.6
20260508071523 69 5 5.0 8.0 0.00 0.00 0.00 84 1011.6
20260508071019 69 11 6.0 11.0 0.00 0.00 0.00 84 1011.8
20260508070519 69 351 7.0 11.0 0.00 0.00 0.00 84 1011.8
20260508070012 69 350 7.0 11.0 0.00 0.00 0.00 84 1011.8
20260508065509 69 357 7.0 11.0 0.00 0.00 0.00 84 1012.2
20260508065227 69 333 8.0 11.0 0.00 0.00 0.00 84 1012.2
20260508064509 69 338 8.0 11.0 0.00 0.00 0.00 84 1012.2
20260508064009 69 342 6.0 10.0 0.00 0.00 0.00 84 1012.2
20260508063510 69 332 6.0 10.0 0.00 0.00 0.00 84 1012.2
20260508063010 69 328 7.0 11.0 0.00 0.00 0.00 84 1012.2
20260508062509 69 329 7.0 11.0 0.00 0.00 0.00 84 1011.9
20260508062234 70 334 7.0 11.0 0.00 0.00 0.00 84 1011.9
20260508061510 70 335 7.0 11.0 0.00 0.00 0.00 84 1011.9
20260508061009 70 342 7.0 10.0 0.00 0.00 0.00 84 1011.7
20260508060510 70 341 7.0 12.0 0.00 0.00 0.00 84 1011.7
20260508060008 70 338 8.0 11.0 0.00 0.00 0.00 84 1011.7
20260508055504 70 357 9.0 12.0 0.00 0.00 0.00 84 1011.6
20260508054952 71 334 9.0 12.0 0.00 0.00 0.00 84 1011.6
20260508054443 71 332 9.0 12.0 0.00 0.00 0.00 85 1011.6
20260508053936 71 329 9.0 12.0 0.00 0.00 0.00 84 1011.6
20260508053430 71 344 8.0 12.0 0.00 0.00 0.00 85 1011.6
20260508052925 72 323 7.0 12.0 0.00 0.00 0.00 85 1011.4
20260508052416 72 344 7.0 10.0 0.00 0.00 0.00 85 1011.4
20260508051906 72 2 7.0 10.0 0.00 0.00 0.00 85 1011.4
20260508051401 72 351 6.0 9.0 0.00 0.00 0.00 85 1010.8
20260508050858 72 349 4.0 7.0 0.00 0.00 0.00 84 1010.8
20260508050630 72 90 3.0 6.0 0.00 0.00 0.00 84 1010.8
20260508045858 72 49 2.0 5.0 0.00 0.00 0.00 84 1011.1
20260508045621 72 74 2.0 5.0 0.00 0.00 0.00 84 1011.1
20260508044854 72 54 2.0 5.0 0.00 0.00 0.00 84 1011.1
20260508044352 72 109 2.0 4.0 0.00 0.00 0.00 84 1011.3
20260508043853 72 112 2.0 4.0 0.00 0.00 0.00 84 1011.3
20260508043350 72 128 2.0 4.0 0.00 0.00 0.00 84 1011.3
20260508042847 72 130 2.0 7.0 0.00 0.00 0.00 84 1010.9